Location: Gollag?dem
(17.0207°N, 80.7261°E)
Time: 06:54:09
(UTC+00:00)

Cosmos 1703 - Pass Details

Date: 03 August 2024
Orbit: 478 x 491 km, 82.5° (Epoch: 10 September)

Event Time Altitude Azimuth Distance (km) Brightness Sun altitude
Rises 22:51:29 0° 353° (N) 2,575 7.0 -20.0°
Reaches altitude 10° 22:53:36 10° 352° (N) 1,688 6.0 -19.5°
Maximum altitude 22:57:17 78° 266° (W) 505 2.9 -18.7°
Enters shadow 22:59:23 24° 182° (S) 1,049 4.5 -18.3°
